DMSP 5D-2 F13 DEB, 40450

Orbit data source: Space-Track

DMSP 5D-2 F13 DEB, 40450 is space debris in SSO originally from a launch on Fri, 24 Mar 1995 UTC launched from the Air Force Western Test Range (AFWTR). Debris objects in space refer to the collection of defunct objects orbiting the Earth. Examples of debris include non-operational satellites, rocket bodies, and fragments generated from explosions, collisions, or faulty payload assembly.

Loading next visibility...
Identifier
40450, 1995-015BC
Orbit
SSO
Country
Flag of USUS
Related business
Manufacturer
Unknown
Mission
Spacecraft
Bus & Motor
Unknown
Mass
Unknown
Launch date (UTC)
1995-03-24 (31 years ago)
Launch vehicle
Unknown
Launch site
Air Force Western Test Range (AFWTR)
Object type
Payload
Rocket body
Debris
Shape & HBR
Unknown shape, 0.1 m
Radar Cross Section
Small (<0.1 m²)

Expand to show TLE details & history
Last TLE update: 21 hours ago

TLE from 21 hours ago
0 DMSP 5D-2 F13 DEB
1 40450U 95015BC  25338.53266588  .00004889  00000-0  18646-2 0  9993
2 40450  98.6504   1.5694 0013210 179.4262 180.6939 14.31211124558611
Epoch: 2025-12-04T12:47Z
TLE epoch observation values (Epoch: 2025-12-04T12:47:02.332Z)
Latitude
0.00008°
Longitude
96.22192°
Altitude
800.084 km
Speed
7.449 km/s
True Right ascension
00h 06m 16s
True Declination
0° 00' 00"
Sunlit
Object was in daylight at epoch
Visualization orbit readout
Latitude
Unknown
Longitude
Unknown
Altitude
Unknown
Speed
Unknown
Apparent Right ascension
Unknown
Apparent Declination
Unknown
Sunlit
N/A
Visualization observer readout
Local Sidereal Time
07:22:55
Azimuth
Unknown
Elevation
Unknown
Doppler factor
Unknown
Orbital elements
Apogee altitude
794.288 km
Perigee altitude
775.364 km
Semi-major axis
7,162.963 km
Eccentricity
0.00132
Inclination
98.6504°
RAAN
1.5694°
Arg. of periapsis
179.4262°
True anomaly
180.69207°
Mean anomaly
180.6939°
Eccentric anomaly
180.69298°
Mean motion
3.58017 °/min
Orbital period
100.55 mins
BSTAR
0.0018646
Loading maneuver chart data...
Computing Atmospheric mass density...

Documentation

Showing up to 5 results
|